Wind_Speed
44 45 45 44 44 44 44 44 44 43 42 42 43 44 45 45 46 47 48 48 49 49 49 48 48 48 48 47 47 48 48 49 49 49 49 49 50 50
46 46 45 45 44 44 44 44 44 45 43 43 44 45 46 46 47 48 49 50 50 49 48 48 48 48 48 48 49 50 50 50 49 50 49 49 49 50
47 46 45 45 45 45 45 45 45 46 46 45 46 46 47 47 48 49 50 49 49 48 48 47 47 48 49 49 50 51 51 51 50 49 49 49 50 50
46 46 46 45 45 45 46 46 46 47 47 47 47 48 49 49 50 50 49 48 48 47 47 48 48 49 50 51 51 51 51 51 51 51 51 51 51 52
46 46 46 46 45 46 46 47 47 48 49 49 49 50 51 51 51 50 49 48 48 48 49 49 50 50 50 50 51 51 51 51 51 51 52 51 52 52
47 46 46 47 47 47 48 48 48 49 50 51 51 52 52 51 50 49 49 49 49 49 49 50 50 50 50 50 50 50 49 49 50 51 51 51 52 52
47 47 47 48 48 48 49 49 50 51 52 52 53 52 51 50 50 50 49 48 48 49 49 49 49 48 49 49 49 48 48 48 48 48 49 49 50 50
48 48 48 49 50 50 50 51 52 53 53 54 53 52 51 50 50 49 49 48 48 48 48 48 48 48 48 48 48 48 48 48 48 48 48 49 48 47
49 49 50 51 52 52 52 53 54 54 54 54 52 51 50 50 50 49 49 48 48 48 47 46 47 47 47 48 48 48 47 47 48 49 48 48 47 46
50 51 51 52 53 54 54 54 55 54 53 52 51 50 50 50 49 48 48 48 48 48 47 46 46 47 47 47 48 47 47 48 48 48 47 46 45 44
50 51 52 53 54 55 55 54 54 52 52 51 50 50 50 49 49 49 49 48 47 46 46 46 46 45 46 46 46 47 47 48 48 47 47 46 44 43
51 52 53 55 55 54 53 53 52 51 51 49 50 50 50 50 49 49 49 47 46 45 45 46 45 45 44 45 45 46 46 46 46 46 45 43 41 40
52 53 54 55 54 53 52 52 51 50 50 49 50 50 50 50 49 49 48 47 46 45 45 45 45 45 45 44 44 45 45 45 44 44 42 40 39 38
52 53 53 53 52 52 51 50 50 50 49 49 49 49 49 48 48 47 46 45 45 45 44 44 44 44 44 44 44 44 44 43 42 41 39 38 37 37
52 52 52 51 50 49 48 48 48 48 47 47 47 47 47 46 45 44 43 43 43 43 43 44 44 44 44 44 43 43 42 41 40 38 37 36 35 34
50 49 48 47 46 45 45 46 46 46 45 45 45 44 43 43 42 42 41 41 41 41 42 42 42 42 42 42 42 41 40 39 37 36 34 33 33 32
47 47 46 45 45 45 45 45 44 44 44 44 43 42 41 41 40 40 40 40 39 39 39 40 40 41 40 41 41 40 38 35 34 32 32 31 30 29
46 45 45 45 45 44 44 43 43 43 43 42 41 40 40 40 39 39 39 39 39 39 39 39 39 39 39 40 40 37 35 33 31 30 29 29 27 26
46 46 45 45 44 43 43 42 42 42 42 41 40 39 39 39 38 37 37 37 38 38 38 38 38 38 37 35 35 35 33 31 30 29 28 27 25 24
45 45 45 44 43 42 41 41 41 41 40 39 39 38 38 37 36 36 36 36 36 36 36 36 36 36 35 34 32 32 31 30 28 26 25 25 23 21
43 43 42 42 41 41 40 40 40 39 38 38 37 37 36 36 35 34 34 34 34 34 34 34 35 35 33 31 29 29 29 28 27 25 24 23 20 18
41 40 40 39 39 38 38 38 37 37 36 36 36 35 35 34 33 32 32 32 32 32 32 33 33 33 31 29 27 27 26 25 25 23 22 20 18 16
38 37 37 37 37 36 36 35 36 35 35 34 34 33 32 31 31 31 31 31 31 31 31 31 30 29 28 26 25 24 23 22 21 20 18 17 17 15
Wind_Direction
285 286 288 289 290 290 291 292 293 293 293 293 294 294 296 296 296 297 298 298 299 298 296 295 296 296 295 295 295 295 294 293 292 291 290 289 287 284
284 285 287 288 289 290 291 292 293 294 293 293 294 295 296 296 296 298 298 298 299 298 297 296 296 296 296 296 295 296 295 294 293 292 291 291 289 287
283 284 285 286 288 289 290 291 292 293 293 294 294 296 296 296 297 298 298 298 298 297 297 297 297 297 297 297 297 297 296 295 293 292 291 290 289 288
282 283 284 285 287 288 289 290 291 292 293 294 294 295 296 297 297 298 298 298 297 297 297 297 297 298 297 297 297 297 296 295 293 292 291 290 289 289
281 282 283 285 286 287 289 290 290 291 292 293 294 295 296 296 297 297 297 297 297 297 298 298 298 298 298 298 297 296 296 294 293 292 292 290 289 289
281 282 283 285 286 287 288 289 290 292 293 294 295 295 295 296 296 296 296 295 296 298 298 298 298 298 299 298 298 298 297 295 294 294 292 291 290 289
280 282 283 285 286 287 288 290 291 292 293 294 295 295 295 295 295 295 295 295 297 298 298 298 298 299 299 299 299 299 298 297 296 295 294 293 292 291
280 281 283 285 286 288 289 290 291 292 294 295 295 295 295 294 295 296 296 296 297 297 297 298 298 298 299 299 299 299 298 297 297 297 297 296 294 293
280 282 284 285 286 287 289 290 291 292 293 294 294 294 294 295 295 296 296 297 297 297 297 298 298 298 299 300 300 299 299 299 299 298 297 296 295 295
281 282 284 285 286 287 288 290 291 292 292 292 293 293 294 295 296 296 296 296 297 297 297 297 298 298 299 300 300 300 300 300 301 301 299 298 297 296
281 282 283 285 286 287 288 289 290 290 290 290 291 293 294 295 295 296 296 297 297 296 297 298 298 298 299 300 300 301 301 301 301 301 300 299 298 296
281 282 283 285 286 287 288 289 289 290 290 290 292 293 294 294 295 296 296 296 296 296 297 297 298 298 298 300 301 302 302 302 302 301 301 300 298 297
281 282 283 284 285 286 287 288 289 289 289 290 291 292 293 293 294 294 295 295 296 297 297 297 298 299 300 300 301 303 302 302 301 301 301 300 298 297
282 283 284 285 285 285 286 287 288 289 290 290 291 291 292 292 292 293 294 295 296 297 298 299 300 301 301 301 302 302 302 302 301 300 299 298 298 297
282 284 285 285 286 287 287 288 289 289 289 289 290 291 291 292 292 293 295 296 297 298 300 301 302 302 303 304 303 303 302 301 300 299 299 299 298 298
284 285 285 286 287 288 288 289 289 289 290 290 291 291 291 292 293 293 294 296 297 299 301 302 303 304 305 306 307 307 305 303 300 299 299 299 298 298
284 285 285 286 287 288 288 289 288 289 290 290 290 290 291 292 293 294 294 295 296 298 300 302 303 305 306 307 307 308 307 305 303 300 300 299 299 299
283 284 284 285 287 288 288 287 287 288 289 290 290 290 291 292 292 293 294 295 296 298 300 300 302 304 306 307 307 308 307 306 305 304 303 301 300 300
282 283 284 284 285 286 286 287 287 287 288 288 289 290 291 292 292 293 293 295 297 298 300 301 303 305 306 306 307 307 307 306 306 305 304 302 301 300
281 282 283 283 284 285 285 286 286 287 287 287 288 289 290 291 291 292 293 296 297 299 300 302 304 306 308 308 307 307 308 308 306 305 305 304 303 301
281 282 282 282 282 283 284 285 286 286 286 286 287 288 289 290 290 291 293 296 298 299 301 302 305 307 309 309 310 310 311 311 309 307 307 306 304 301
281 281 282 282 282 283 283 284 285 286 286 285 286 287 288 289 289 291 294 297 298 300 302 303 305 307 309 309 311 312 312 312 312 311 310 309 306 304
281 282 282 282 283 283 284 284 285 286 286 285 285 286 287 288 290 292 294 296 299 302 303 304 305 306 308 309 311 314 314 314 313 312 312 311 311 309
Height
5743 5741 5739 5737 5734 5731 5728 5725 5723 5721 5721 5718 5714 5710 5706 5703 5699 5696 5692 5688 5683 5678 5674 5670 5665 5661 5657 5654 5650 5646 5642 5638 5635 5631 5628 5625 5622 5620
5733 5731 5729 5726 5723 5721 5718 5715 5712 5710 5709 5708 5704 5700 5696 5692 5688 5684 5680 5676 5671 5666 5662 5658 5653 5649 5645 5641 5637 5633 5629 5625 5621 5618 5615 5611 5609 5606
5722 5720 5718 5716 5713 5711 5708 5705 5702 5699 5697 5696 5692 5689 5685 5681 5677 5673 5668 5664 5659 5654 5650 5646 5642 5637 5633 5629 5624 5620 5616 5612 5608 5604 5601 5598 5595 5592
5711 5709 5707 5705 5703 5700 5697 5694 5691 5688 5685 5683 5681 5677 5673 5669 5665 5661 5656 5652 5648 5643 5639 5634 5630 5625 5620 5616 5612 5607 5602 5598 5595 5591 5587 5584 5580 5577
5699 5698 5696 5694 5692 5689 5686 5683 5680 5677 5674 5671 5668 5665 5661 5656 5653 5649 5644 5640 5636 5631 5627 5622 5618 5612 5607 5603 5598 5593 5589 5585 5581 5576 5573 5569 5565 5562
5688 5686 5684 5682 5680 5678 5675 5672 5669 5665 5662 5658 5655 5652 5648 5644 5639 5636 5633 5628 5624 5619 5614 5610 5605 5600 5595 5590 5585 5580 5576 5571 5566 5562 5558 5554 5550 5547
5676 5675 5673 5671 5668 5666 5663 5660 5656 5653 5649 5646 5643 5639 5635 5631 5627 5623 5620 5616 5612 5607 5602 5597 5592 5588 5582 5577 5572 5567 5563 5558 5553 5549 5545 5540 5536 5532
5665 5663 5661 5659 5656 5654 5651 5647 5644 5640 5636 5633 5630 5626 5622 5618 5614 5610 5606 5603 5600 5596 5590 5586 5580 5576 5570 5565 5560 5555 5550 5545 5540 5536 5531 5526 5522 5518
5652 5651 5649 5647 5644 5641 5638 5635 5631 5627 5623 5620 5616 5612 5609 5605 5601 5598 5593 5589 5586 5582 5577 5574 5569 5564 5558 5553 5548 5543 5538 5533 5528 5523 5518 5513 5509 5505
5640 5638 5636 5633 5631 5628 5625 5622 5618 5614 5610 5606 5603 5600 5596 5592 5588 5584 5581 5577 5574 5569 5564 5561 5557 5552 5547 5542 5536 5531 5526 5521 5515 5510 5505 5501 5496 5492
5626 5624 5622 5620 5617 5614 5611 5608 5605 5601 5597 5593 5590 5587 5583 5579 5575 5572 5568 5564 5562 5558 5552 5548 5545 5541 5536 5531 5525 5519 5513 5508 5503 5498 5493 5488 5484 5479
5614 5611 5608 5605 5602 5599 5596 5593 5591 5588 5584 5581 5578 5574 5571 5567 5563 5559 5555 5551 5548 5546 5541 5536 5532 5528 5526 5521 5514 5508 5502 5496 5491 5486 5481 5476 5471 5467
5599 5597 5594 5591 5588 5585 5582 5579 5577 5574 5571 5568 5565 5562 5558 5554 5550 5546 5542 5538 5535 5532 5528 5524 5520 5515 5511 5509 5504 5497 5491 5485 5480 5475 5470 5465 5460 5457
5585 5582 5580 5577 5574 5571 5568 5566 5563 5560 5558 5555 5552 5549 5545 5542 5538 5534 5531 5527 5522 5519 5515 5511 5508 5503 5499 5495 5491 5487 5480 5474 5469 5464 5460 5455 5451 5447
5570 5568 5565 5563 5560 5557 5555 5552 5550 5547 5544 5542 5539 5536 5533 5529 5526 5523 5519 5515 5512 5507 5503 5499 5495 5491 5487 5482 5478 5474 5470 5464 5458 5454 5450 5445 5441 5438
5556 5554 5552 5549 5547 5545 5543 5540 5537 5535 5532 5529 5526 5524 5520 5518 5515 5511 5508 5505 5502 5498 5492 5488 5484 5480 5476 5471 5466 5462 5457 5453 5449 5444 5440 5436 5432 5428
5543 5541 5540 5538 5536 5533 5531 5528 5525 5523 5520 5517 5515 5512 5509 5506 5504 5500 5497 5494 5491 5488 5484 5479 5474 5469 5465 5460 5456 5451 5446 5442 5438 5434 5431 5428 5424 5420
5530 5529 5527 5525 5523 5521 5518 5516 5513 5511 5508 5506 5503 5501 5498 5495 5493 5490 5486 5483 5480 5477 5473 5469 5466 5461 5456 5451 5445 5441 5437 5433 5429 5425 5422 5419 5417 5413
5517 5516 5514 5513 5511 5508 5506 5504 5501 5499 5496 5494 5492 5490 5487 5485 5482 5479 5476 5473 5470 5466 5462 5458 5455 5451 5448 5444 5438 5432 5428 5425 5421 5418 5414 5411 5408 5406
5504 5503 5501 5500 5498 5496 5494 5491 5489 5487 5485 5483 5481 5479 5476 5474 5472 5469 5466 5463 5460 5457 5453 5449 5445 5441 5437 5434 5430 5425 5419 5416 5413 5410 5407 5404 5401 5398
5491 5490 5488 5487 5485 5483 5481 5480 5478 5476 5474 5472 5470 5468 5466 5464 5461 5459 5456 5453 5450 5447 5444 5440 5436 5432 5428 5425 5422 5418 5413 5407 5404 5401 5399 5397 5395 5393
5479 5478 5476 5475 5473 5471 5470 5468 5466 5464 5462 5461 5459 5457 5456 5453 5451 5449 5447 5444 5441 5438 5435 5431 5428 5424 5420 5417 5414 5410 5406 5402 5397 5393 5391 5389 5387 5386
5467 5466 5465 5463 5461 5460 5458 5456 5455 5453 5452 5450 5449 5447 5446 5444 5442 5440 5438 5435 5432 5429 5426 5423 5420 5416 5413 5410 5406 5403 5399 5396 5393 5389 5386 5383 5382 5381